Wind_Speed
16 16 17 18 17 17 18 17 17 17 17 16 17 17 17 17 17 18 18 18 18 19 19 18 18 18 18 19 19 19 19 18 18 19 18 18 17 17 17 18 16 16 16
16 16 17 17 17 17 18 18 18 18 18 17 17 18 18 18 18 18 19 19 19 20 20 20 19 19 19 20 19 19 19 18 18 18 18 18 18 17 17 17 17 17 16
16 17 17 16 16 17 17 17 17 17 18 18 18 18 18 18 18 18 18 19 20 20 20 20 19 20 20 20 19 18 17 18 18 19 19 19 19 19 18 18 18 18 17
16 17 17 17 18 17 17 18 18 18 18 18 18 18 18 18 18 18 18 19 19 20 20 20 20 20 21 21 20 19 19 19 19 19 19 19 20 19 19 19 18 17 17
17 17 18 18 18 17 18 18 18 18 18 18 18 18 18 18 18 18 19 19 20 20 20 20 21 21 21 20 20 21 21 21 20 20 20 20 20 20 20 20 19 19 18
18 18 18 18 18 18 18 18 18 18 18 17 18 18 18 18 18 18 19 19 19 19 19 20 20 21 21 21 21 20 21 20 20 20 20 21 21 21 20 20 20 19 19
18 19 19 18 18 18 18 18 18 18 18 18 18 18 17 17 17 17 18 18 18 19 19 19 20 20 21 21 20 20 20 20 20 20 20 21 21 21 20 19 19 19 19
19 19 19 19 19 19 18 18 18 19 19 19 19 19 18 17 17 17 18 17 17 17 18 18 19 20 20 19 19 20 19 19 19 19 20 20 20 20 20 19 19 18 18
19 18 18 18 19 20 20 19 19 19 20 20 19 19 19 18 18 18 17 17 17 18 18 18 19 18 18 18 19 19 18 18 18 18 18 19 20 21 21 20 20 19 18
19 19 19 19 19 20 21 20 20 19 20 20 20 20 20 19 18 17 17 17 17 17 18 18 18 18 18 19 19 19 19 18 18 18 18 18 19 20 20 20 20 20 19
20 20 20 20 20 21 21 20 20 20 21 21 21 20 20 20 20 19 18 18 18 18 19 19 19 19 20 20 19 19 19 19 19 18 19 19 19 20 21 20 20 19 19
20 20 20 20 21 21 21 21 21 22 22 22 22 21 21 21 21 20 19 19 19 18 19 19 19 20 20 19 18 18 18 18 18 18 18 19 19 21 21 21 21 21 20
21 21 21 21 22 22 22 22 22 23 22 22 22 21 22 21 21 21 20 19 19 19 19 20 20 20 20 19 18 18 18 18 18 17 18 19 21 21 22 21 21 21 20
21 21 22 22 22 23 23 23 23 23 22 22 22 21 21 21 21 21 20 20 20 20 20 21 21 20 20 19 19 18 19 19 19 19 18 19 20 21 21 20 20 21 21
22 22 22 22 23 23 23 23 22 22 22 22 22 22 22 22 23 23 22 22 22 21 22 22 22 21 21 20 19 19 19 20 19 19 19 19 19 19 20 20 21 21 22
23 23 22 22 23 23 23 23 22 22 22 22 22 22 22 22 23 23 23 22 23 23 23 23 23 23 22 22 21 21 20 19 18 18 18 18 18 18 19 20 21 22 22
23 23 23 23 22 23 24 23 22 22 23 22 22 22 22 22 23 23 23 23 24 24 23 23 24 23 23 22 22 22 21 21 19 18 19 18 18 19 19 20 21 22 22
23 24 24 24 24 24 23 23 23 23 23 23 23 23 23 23 23 24 24 24 24 24 23 23 23 23 23 23 23 22 22 21 20 19 19 20 20 20 20 21 22 22 23
24 24 25 25 25 25 25 24 24 24 24 24 24 24 23 24 24 24 24 24 24 24 23 23 23 23 23 23 23 23 22 22 21 21 20 21 21 22 22 22 22 23 23
25 26 26 26 25 25 25 25 25 25 25 25 25 25 25 25 25 25 24 25 24 24 24 24 24 24 23 23 24 24 23 23 23 23 22 22 22 22 23 23 23 23 23
26 26 26 26 26 26 26 26 26 26 26 25 26 26 25 25 25 25 25 25 25 25 25 25 25 25 25 24 25 25 25 24 24 24 24 24 24 23 24 24 23 23 23
27 26 26 26 26 27 26 27 27 27 27 27 27 27 26 26 26 26 26 26 26 27 27 27 26 26 26 26 26 25 26 26 25 25 26 25 25 24 24 24 23 23 24
28 27 27 27 28 27 27 27 27 27 28 28 28 27 27 27 27 27 27 27 27 27 27 27 28 27 27 27 27 27 27 27 27 27 27 26 25 24 24 24 24 24 24
28 28 28 28 28 27 28 28 28 28 28 28 28 27 27 27 27 27 28 28 28 27 28 28 28 28 28 28 28 27 27 27 27 27 27 27 26 25 25 25 25 25 25
27 28 29 29 28 28 28 28 28 28 27 27 27 27 27 27 27 28 28 28 28 28 28 29 29 29 29 29 29 29 29 28 27 27 27 27 26 26 26 25 26 26 26
28 28 28 28 28 28 28 28 28 28 27 27 27 27 28 28 28 29 29 28 28 29 29 30 29 29 29 29 29 29 29 29 28 27 27 27 27 27 26 26 26 26 26
Wind_Direction
275 274 272 274 275 276 278 279 280 280 281 282 284 285 285 282 281 281 282 280 278 278 279 281 281 279 279 278 273 273 272 270 268 265 263 265 263 264 262 260 258 257 258
278 280 278 278 277 276 278 279 280 281 281 282 284 285 285 285 283 284 282 280 279 280 278 279 279 278 278 278 274 272 270 271 269 267 267 267 264 264 263 261 260 257 257
279 280 280 279 279 278 278 280 281 282 281 282 283 285 286 285 286 285 283 280 278 278 277 278 279 278 276 276 274 273 272 272 272 269 266 264 263 264 263 262 262 258 256
280 280 279 278 278 278 278 280 282 282 281 282 283 284 286 286 286 285 284 282 279 279 278 277 277 279 277 275 274 274 273 273 272 270 266 263 261 261 261 262 261 257 255
280 280 280 278 278 278 278 279 282 283 283 283 283 283 284 285 286 285 285 283 281 281 280 278 277 278 278 276 273 273 273 273 271 268 266 263 260 260 259 259 260 257 255
279 280 280 278 277 278 279 279 279 281 282 283 282 282 283 284 285 285 286 285 284 282 281 279 278 279 279 275 273 274 274 274 271 267 266 263 259 258 257 257 258 257 253
280 280 280 280 277 278 280 279 279 279 278 280 282 283 284 284 284 285 286 284 283 283 282 281 281 280 280 277 275 275 274 272 270 268 265 262 258 254 254 253 253 253 253
281 281 280 280 277 277 279 279 280 280 277 278 279 280 281 283 284 284 285 285 284 285 285 284 282 281 280 277 275 275 274 274 272 269 265 261 257 255 253 253 251 251 254
280 280 281 282 280 277 278 279 280 280 280 280 279 279 280 282 282 283 284 285 285 285 285 285 284 282 280 276 273 274 275 277 275 272 268 263 259 256 252 253 254 255 256
281 282 282 282 282 281 281 280 280 279 280 280 279 278 279 280 282 282 282 283 283 284 285 284 284 281 279 277 277 277 276 277 277 274 268 263 260 256 255 254 255 256 255
282 282 283 282 282 283 283 282 282 281 280 281 279 278 278 280 280 281 281 280 282 283 284 284 282 283 283 280 277 276 276 276 276 273 269 265 260 255 254 255 257 258 258
282 281 282 282 282 282 284 283 282 282 282 282 280 278 279 278 279 279 279 280 280 282 283 283 283 283 283 279 277 275 275 275 273 270 268 266 261 259 256 258 257 257 259
282 282 281 281 282 283 285 284 283 282 282 282 282 280 279 277 277 278 278 277 278 279 280 283 284 283 282 279 276 276 276 274 275 270 266 264 263 262 259 258 256 257 259
281 282 283 282 283 284 284 285 284 282 281 281 282 281 279 279 279 280 279 279 280 280 281 284 283 281 278 278 276 274 274 275 276 273 267 265 264 263 260 258 257 257 257
282 282 281 283 284 285 285 286 284 283 282 280 280 280 280 279 278 279 279 280 281 282 282 283 282 280 279 277 275 276 275 276 275 274 272 268 265 265 263 262 259 258 258
282 281 281 282 283 284 284 284 283 283 283 281 281 281 280 279 277 278 279 280 281 281 281 281 280 280 279 277 275 276 276 274 273 273 272 269 266 264 264 261 259 258 258
282 280 282 283 283 284 284 284 283 281 281 280 280 280 280 280 280 278 279 280 280 281 281 280 280 279 277 277 275 275 274 273 273 273 272 271 269 267 266 265 263 263 262
284 281 282 282 283 284 284 282 282 281 280 278 278 279 280 278 279 279 278 279 280 281 281 280 279 277 276 277 276 275 274 273 273 274 273 270 270 269 269 268 266 264 262
284 283 282 283 282 283 282 281 281 281 280 278 277 277 278 278 278 279 278 279 279 279 280 279 279 278 278 277 276 275 273 272 273 275 273 271 270 270 270 270 269 266 263
284 284 284 283 283 283 283 281 281 280 279 278 276 276 276 276 276 276 276 278 278 279 279 278 278 278 278 278 277 275 274 274 275 275 274 272 271 271 270 270 269 267 265
284 284 284 283 282 283 283 281 280 279 279 278 277 276 276 276 275 275 276 277 279 279 280 279 279 279 279 279 278 277 275 275 275 275 275 273 272 271 270 269 267 265 265
283 283 283 283 282 282 282 281 280 278 279 278 277 277 275 276 277 277 277 279 280 280 280 279 278 279 279 279 279 278 277 276 274 273 273 272 272 270 269 267 266 266 266
283 282 282 282 283 281 280 282 281 279 277 277 277 276 275 274 275 276 278 279 280 281 281 280 279 278 278 279 279 277 277 277 275 273 272 271 270 270 268 266 265 264 265
283 282 282 282 282 280 279 281 281 280 278 276 275 275 275 273 273 274 277 278 279 280 281 281 280 279 279 279 278 277 277 277 276 273 271 270 269 269 269 268 266 264 265
287 285 283 282 281 282 281 280 280 279 279 278 275 274 274 272 273 275 276 277 279 279 280 281 280 279 280 280 279 277 277 276 274 273 271 270 268 268 268 268 267 265 265
290 289 286 284 283 283 281 281 280 280 280 280 278 275 275 274 274 276 276 277 279 280 280 280 280 279 279 279 279 278 277 275 273 272 272 270 269 268 267 267 266 264 264
Height
5839 5839 5839 5839 5839 5838 5838 5838 5838 5837 5837 5836 5836 5835 5835 5834 5834 5834 5834 5833 5833 5833 5833 5832 5832 5832 5832 5832 5832 5832 5832 5832 5833 5833 5834 5835 5835 5836 5836 5837 5838 5839 5839
5836 5835 5835 5835 5835 5835 5834 5834 5834 5833 5833 5833 5832 5831 5831 5830 5830 5830 5829 5829 5829 5829 5829 5829 5828 5828 5828 5828 5828 5828 5828 5828 5829 5829 5830 5830 5831 5832 5832 5833 5834 5835 5836
5832 5832 5832 5831 5831 5831 5830 5830 5830 5829 5829 5829 5828 5827 5826 5826 5825 5825 5825 5825 5825 5825 5825 5824 5824 5824 5823 5823 5823 5823 5823 5824 5824 5825 5825 5826 5827 5827 5828 5829 5830 5831 5832
5828 5828 5828 5828 5827 5827 5827 5826 5826 5825 5825 5824 5824 5823 5822 5821 5821 5820 5820 5820 5820 5820 5820 5820 5820 5819 5819 5819 5819 5818 5819 5819 5819 5820 5820 5821 5822 5823 5823 5824 5825 5826 5828
5824 5824 5824 5823 5823 5823 5823 5822 5822 5821 5821 5820 5820 5819 5818 5817 5817 5816 5816 5816 5816 5816 5815 5816 5815 5815 5814 5814 5813 5813 5813 5813 5814 5814 5815 5816 5817 5817 5819 5820 5821 5822 5823
5820 5819 5819 5819 5819 5818 5818 5818 5817 5817 5817 5816 5816 5815 5814 5813 5813 5812 5812 5811 5811 5811 5811 5811 5810 5810 5809 5808 5808 5808 5808 5808 5808 5808 5809 5810 5811 5812 5814 5815 5816 5817 5819
5815 5815 5814 5814 5814 5814 5814 5813 5813 5813 5813 5813 5812 5812 5811 5810 5809 5808 5808 5807 5807 5807 5806 5806 5805 5805 5804 5803 5803 5803 5802 5802 5802 5803 5803 5804 5805 5807 5808 5809 5811 5812 5814
5811 5810 5810 5810 5810 5809 5809 5809 5809 5808 5808 5808 5808 5808 5807 5807 5805 5804 5803 5803 5802 5802 5802 5801 5800 5799 5798 5798 5798 5797 5797 5797 5796 5796 5797 5798 5799 5801 5803 5804 5806 5807 5809
5806 5806 5806 5805 5805 5804 5804 5804 5804 5804 5803 5803 5803 5803 5803 5802 5801 5801 5799 5799 5798 5798 5797 5796 5795 5794 5794 5793 5793 5792 5792 5791 5791 5791 5791 5792 5794 5795 5797 5799 5801 5802 5804
5801 5801 5801 5800 5800 5799 5799 5799 5799 5799 5798 5798 5798 5798 5798 5798 5797 5797 5796 5795 5794 5793 5793 5792 5791 5790 5789 5788 5788 5787 5787 5787 5786 5786 5786 5787 5788 5790 5792 5794 5795 5797 5799
5796 5796 5795 5795 5795 5795 5794 5794 5794 5794 5793 5793 5793 5793 5792 5792 5792 5792 5791 5790 5790 5789 5788 5787 5786 5785 5784 5783 5783 5782 5782 5782 5781 5781 5781 5782 5783 5784 5786 5788 5790 5792 5793
5791 5790 5790 5790 5790 5789 5789 5789 5788 5788 5788 5788 5788 5787 5787 5787 5787 5786 5786 5785 5785 5784 5783 5782 5781 5780 5779 5779 5778 5777 5777 5777 5776 5776 5776 5777 5778 5779 5781 5782 5784 5786 5787
5785 5785 5785 5784 5784 5784 5784 5783 5783 5783 5782 5782 5782 5782 5781 5782 5781 5781 5781 5780 5780 5779 5778 5777 5776 5775 5774 5773 5773 5772 5772 5771 5771 5771 5771 5772 5773 5774 5775 5777 5778 5780 5781
5780 5780 5779 5779 5779 5778 5778 5778 5777 5777 5777 5777 5776 5776 5776 5776 5776 5776 5775 5775 5775 5774 5773 5772 5771 5770 5769 5768 5768 5768 5767 5767 5766 5766 5766 5766 5767 5768 5769 5770 5772 5774 5775
5774 5774 5773 5773 5773 5773 5772 5772 5771 5771 5771 5770 5770 5770 5770 5770 5770 5770 5769 5769 5769 5769 5768 5767 5766 5765 5764 5763 5763 5763 5762 5762 5761 5761 5761 5761 5761 5762 5763 5764 5766 5767 5769
5768 5767 5767 5767 5767 5767 5766 5766 5765 5765 5765 5764 5764 5764 5764 5764 5764 5763 5763 5763 5762 5762 5762 5761 5760 5759 5758 5758 5758 5757 5757 5756 5756 5756 5756 5756 5756 5756 5757 5758 5759 5761 5762
5762 5761 5761 5761 5761 5760 5760 5759 5759 5759 5759 5759 5758 5758 5758 5758 5757 5757 5757 5757 5756 5756 5755 5755 5754 5753 5752 5752 5752 5751 5751 5751 5750 5750 5750 5750 5750 5751 5751 5752 5753 5754 5755
5756 5755 5755 5755 5755 5754 5754 5753 5753 5753 5753 5752 5752 5752 5751 5751 5751 5751 5750 5750 5749 5749 5748 5748 5747 5746 5746 5746 5745 5745 5745 5744 5744 5744 5744 5745 5745 5745 5745 5745 5746 5747 5748
5749 5749 5749 5748 5748 5748 5747 5747 5747 5746 5746 5746 5745 5745 5745 5745 5744 5744 5743 5743 5742 5742 5741 5741 5740 5740 5739 5739 5739 5739 5738 5738 5738 5738 5738 5738 5738 5738 5738 5739 5739 5740 5740
5743 5742 5742 5741 5741 5741 5740 5740 5739 5739 5739 5738 5738 5738 5738 5737 5737 5737 5736 5736 5735 5735 5734 5734 5733 5732 5732 5732 5731 5731 5732 5731 5731 5731 5731 5731 5731 5731 5731 5732 5732 5732 5733
5736 5736 5735 5734 5734 5733 5733 5732 5732 5731 5731 5731 5731 5731 5730 5730 5730 5729 5729 5729 5728 5728 5727 5726 5726 5725 5725 5724 5724 5724 5724 5724 5724 5723 5723 5723 5723 5724 5724 5724 5724 5725 5725
5729 5728 5728 5727 5726 5725 5725 5724 5724 5723 5723 5723 5723 5723 5722 5722 5722 5722 5721 5721 5720 5720 5719 5718 5718 5717 5717 5717 5716 5716 5715 5716 5716 5716 5715 5715 5715 5716 5716 5716 5717 5717 5718
5721 5720 5719 5719 5718 5717 5716 5716 5715 5715 5715 5714 5714 5714 5714 5714 5714 5714 5713 5713 5712 5711 5711 5710 5710 5709 5709 5709 5708 5708 5707 5707 5707 5707 5706 5707 5707 5708 5708 5708 5709 5710 5710
5713 5712 5711 5710 5709 5708 5707 5707 5706 5706 5706 5706 5706 5705 5706 5705 5705 5705 5705 5705 5704 5703 5702 5702 5701 5700 5700 5699 5699 5699 5698 5698 5698 5698 5697 5698 5699 5699 5700 5700 5700 5701 5702
5705 5703 5702 5701 5701 5700 5699 5698 5698 5697 5697 5697 5697 5697 5697 5697 5696 5696 5696 5696 5696 5695 5694 5693 5692 5692 5691 5690 5689 5689 5689 5689 5689 5689 5689 5689 5690 5690 5691 5692 5692 5693 5693
5697 5695 5694 5693 5692 5691 5690 5690 5689 5689 5689 5688 5688 5688 5688 5688 5687 5687 5687 5687 5687 5686 5686 5685 5684 5683 5682 5681 5681 5680 5680 5679 5679 5680 5680 5680 5681 5681 5683 5683 5684 5684 5685